Find Local Weather

World > North America > United States > North Carolina

Laurel Park, North Carolina Regional Weather

Lat: 35.31N, Lon: 82.49W
Wx Zone: NCZ065
Feedback

Laurel Park, NC Regional Weather

Expires:201905260100;;461070
ASUS42 KRAH 260010
RWRRAH
NORTH CAROLINA WEATHER ROUNDUP
NATIONAL WEATHER SERVICE RALEIGH NC
800 PM EDT SAT MAY 25 2019

NOTE: "FAIR" INDICATES FEW OR NO CLOUDS BELOW 12,000 FEET WITH NO
SIGNIFICANT WEATHER AND/OR OBSTRUCTIONS TO VISIBILITY.


NCZ001-053-055-056-065-067-260100-
WESTERN NORTH CAROLINA
  
CITY           SKY/WX    TMP DP  RH WIND       PRES   REMARKS
ASHEVILLE      FAIR      82  62  50 NW6       30.19R                  
JEFFERSON      FAIR      77  54  44 W8        30.24R                  
MORGANTON      FAIR      83  68  59 CALM      30.15R                  
HICKORY        FAIR      85  65  51 SW5       30.10S                  
WILKESBORO     NOT AVBL                                               
RUTHERFORDTON  FAIR      84  66  54 CALM      30.11S                  
MOUNT AIRY     FAIR      85  72  66 CALM      30.12R                  
BOONE          FAIR      78  53  40 CALM      30.25S                  
$$
 

SKY/WX - Weather  TMP - Temperature  DP - Dew Point  RH - Relative Humidity
WIND - Wind Direction/Speed PRES - Barometric Pressure VSB - Visibility
WCI - Wind Chill Index E13G22 Wind - East Wind 13 mph/Gusts of 22 mph